Skip Page Navigation
NASA JPL Caltech
NASA Logo - Jet Propulsion Laboratory + View the NASA Portal
+ Center for Near-Earth Object Studies
JPL Home Earth Solar System Stars & Galaxies Technology
JPL Solar System Dynamics
BODIES ORBITS EPHEMERIDES TOOLS PHYSICAL DATA DISCOVERY FAQ SITE MAP
JPL Small-Body Database Browser
Search: [ help ]  
362823 (2011 YP78)
Classification: Main-belt Asteroid          SPK-ID: 2362823
Ephemeris | Orbit Diagram | Orbital Elements | Mission Design | Physical Parameters | Discovery Circumstances | Close-Approach Data ]

[ hide orbit diagram ]

For accurate long-term ephemerides, please instead use our Horizons system.This orbit viewer was implemented using two-body methods, and hence should not be used for determining accurate long-term trajectories (over several years or decades) or planetary encounter circumstances.


Orbital Elements at Epoch 2459396.5 (2021-Jul-01.0) TDB
Reference: JPL 13 (heliocentric ecliptic J2000)
 Element Value Uncertainty (1-sigma)   Units 
e .08766985192689733 6.1727e-08  
a 3.11992281194333 5.7163e-08 au
q 2.846399640996909 1.9662e-07 au
i 11.75734931211157 7.128e-06 deg
node 88.29330216480481 2.935e-05 deg
peri 9.47703306575764 4.8772e-05 deg
M 270.2063686790431 4.3203e-05 deg
tp 2459898.561865583166
(2022-Nov-15.06186558)
0.00024967 TDB
period 2012.862927481987
5.51
5.532e-05
1.515e-07
d
yr
n .1788497344180043 4.9153e-09 deg/d
Q 3.39344598288975 6.2175e-08 au
  Orbit Determination Parameters
   # obs. used (total)      168  
   data-arc span      5404 days (14.80 yr)  
   first obs. used      2005-11-06  
   last obs. used      2020-08-23  
   planetary ephem.      DE441  
   SB-pert. ephem.      SB441-N16  
   condition code      0  
   norm. resid. RMS      .53248  
   source      ORB  
   producer      Otto Matic  
   solution date      2021-Apr-14 09:40:57  

Additional Information
 Earth MOID = 1.864 au 
 Jupiter MOID = 1.79953 au 
 T_jup = 3.178 
[ show covariance matrix ]

Ephemeris | Orbit Diagram | Orbital Elements | Mission Design | Physical Parameters | Discovery Circumstances | Close-Approach Data ]

Physical Parameter Table
Parameter Symbol Value Units Sigma Reference Notes
absolute magnitude H 16.31   n/a E2021B25  

362823 (2011 YP78)          Discovered 2005-Nov-06 by Mt. Lemmon Survey at Mount Lemmon
Reference: Last Updated: 2013-04-29

[ show close-approach data ]
Ephemeris | Orbit Diagram | Orbital Elements | Mission Design | Physical Parameters | Discovery Circumstances | Close-Approach Data ]
ABOUT SSD CREDITS/AWARDS PRIVACY/COPYRIGHT GLOSSARY LINKS
FirstGov 2021-Jul-23 14:55 UT
(server date/time)  
NASA Home Page
Site Manager:   Ryan S. Park
Webmaster  Alan B. Chamberlin